SCP
0 0 0 0 0 0 0 0 0 0 0 0 0 0 0 0 0 0 0 0 0 0 1 1 1 0 0 0 0 0 0 0 0 0 0 0 0 0 0 0 0 0 0
0 0 0 0 0 0 0 0 0 0 0 0 0 0 0 0 0 0 0 0 0 0 0 1 1 0 0 0 0 0 0 0 0 0 0 0 0 0 0 0 0 0 0
0 0 0 0 0 0 0 0 0 0 0 0 0 0 0 0 0 0 0 0 0 0 0 0 0 0 0 0 0 0 0 0 0 0 0 0 0 0 0 0 0 0 0
0 0 0 0 0 0 0 0 0 0 0 0 0 0 0 0 0 0 0 0 0 0 0 0 0 0 0 0 0 0 0 0 0 0 0 0 0 0 0 0 0 0 0
0 0 0 0 0 0 0 0 0 0 0 0 0 0 0 0 0 0 0 0 0 0 0 0 0 0 0 0 0 0 0 0 0 0 0 0 0 0 0 0 0 0 0
0 0 0 0 0 0 0 0 0 0 0 0 0 0 0 0 0 0 0 0 0 0 0 0 0 0 0 0 0 0 0 0 0 0 0 0 0 0 0 0 0 0 0
0 0 0 0 0 0 0 0 0 0 0 0 0 0 0 0 0 0 0 0 0 0 0 0 0 0 0 0 0 0 0 0 0 0 0 0 0 0 0 0 0 0 0
0 0 0 0 0 0 0 0 0 0 0 0 0 0 0 0 0 0 0 0 0 0 0 0 0 0 0 0 0 0 0 0 0 0 0 0 0 0 0 0 0 0 0
0 0 0 0 0 0 0 0 0 0 0 0 0 0 0 0 0 0 0 0 0 0 0 0 0 0 0 0 0 0 0 0 0 0 0 0 0 0 0 0 0 0 0
0 0 0 0 0 0 0 0 0 0 0 0 0 0 0 0 0 0 0 0 0 0 0 0 0 0 0 0 0 0 0 0 0 0 0 0 0 0 0 0 1 1 0
0 0 0 0 0 0 0 0 0 0 0 0 0 0 0 0 0 0 0 0 0 0 0 0 0 0 0 0 0 0 0 0 0 0 0 0 0 0 0 0 1 1 1
0 0 0 0 0 0 0 0 0 0 0 0 0 0 0 0 0 0 0 0 0 0 0 0 0 0 0 0 0 0 0 0 0 0 0 0 0 0 0 0 1 1 1
1 1 0 0 0 0 0 0 0 0 0 0 0 0 0 0 0 0 0 0 0 0 0 0 0 0 0 0 0 0 0 0 0 0 0 0 0 1 1 1 1 1 1
1 1 1 0 0 0 0 0 0 0 0 0 0 0 0 0 0 0 0 0 0 0 0 0 0 0 0 0 0 0 0 0 0 0 0 0 0 1 1 1 1 1 1
2 1 1 1 0 0 0 0 0 0 0 0 0 0 0 0 0 0 0 0 0 0 0 0 0 0 0 0 0 0 0 0 0 0 0 0 1 1 1 1 1 1 1
1 1 1 1 0 0 0 0 0 0 0 0 0 0 0 0 0 0 0 0 0 0 0 0 0 0 0 0 0 0 0 0 0 0 0 0 1 1 1 0 1 1 1
0 0 0 0 0 0 0 0 0 0 0 0 0 0 0 0 0 0 0 0 0 0 0 0 0 0 0 0 0 0 0 0 0 0 0 0 1 1 1 1 1 1 1
0 0 0 0 0 0 0 0 0 0 0 0 0 0 0 0 0 0 0 0 0 0 0 0 0 0 0 0 0 0 0 0 0 0 0 0 0 1 1 1 1 1 0
0 0 0 0 0 0 0 0 0 0 0 0 0 0 0 0 0 0 0 0 0 0 0 0 0 0 0 0 0 0 0 0 0 0 0 0 0 0 1 1 1 1 0
0 0 0 0 0 0 0 0 0 0 0 0 0 0 0 0 0 0 0 0 0 0 0 0 0 0 0 0 0 0 0 0 0 0 0 0 0 0 0 0 0 0 0
0 0 0 0 0 0 0 0 0 0 0 0 0 0 0 0 0 0 0 0 0 0 0 0 0 0 0 0 0 0 0 0 0 0 0 0 0 0 0 0 0 0 0
0 0 0 0 0 0 0 0 0 0 0 0 0 0 0 0 0 0 0 0 0 0 0 0 0 0 0 0 0 0 0 0 0 0 0 0 0 0 0 0 0 0 0
0 0 0 0 0 0 0 0 0 0 0 0 0 0 0 0 0 0 0 0 0 0 0 0 0 0 0 0 0 0 0 0 0 0 0 0 0 0 0 0 0 0 0
0 0 0 0 0 0 0 0 0 0 0 0 0 0 0 0 0 0 0 0 0 0 0 0 0 0 0 0 0 0 0 0 0 0 0 0 0 0 0 0 0 0 0
0 0 0 0 0 0 0 0 0 0 0 0 0 0 0 0 0 0 0 0 0 0 0 0 0 0 0 0 0 0 0 0 0 0 0 0 0 0 0 0 0 0 0
0 0 0 0 0 0 0 0 0 0 0 0 0 0 0 0 0 0 0 0 0 0 0 0 0 0 0 0 0 0 0 0 0 0 0 0 0 0 0 0 0 0 0
Wind_Speed
1 1 1 1 1 1 2 2 2 2 2 3 3 3 3 3 3 2 2 6 7 8 8 8 7 7 6 5 5 5 5 5 5 5 5 5 5 5 5 5 5 6 6
1 1 1 1 1 1 2 2 2 2 2 2 2 3 2 2 2 2 2 3 6 7 7 8 7 7 6 6 6 5 5 5 5 5 5 5 5 5 5 5 5 6 6
2 2 1 1 1 1 1 1 2 2 2 2 2 2 2 2 2 2 2 1 2 5 6 7 6 7 6 6 6 6 5 5 5 5 5 6 6 5 5 5 5 6 6
2 1 1 1 1 1 1 1 1 2 2 2 2 2 2 1 2 1 1 1 1 2 3 5 6 6 6 6 6 6 6 6 6 6 6 6 7 7 6 6 6 7 7
1 1 1 1 1 1 1 2 2 1 2 2 2 2 2 1 1 1 1 1 1 1 1 4 6 6 7 7 7 7 7 7 6 6 7 7 7 8 8 7 7 8 8
1 1 1 1 1 1 1 1 2 2 1 1 2 2 2 2 1 0 1 1 1 2 2 2 2 4 7 8 8 8 8 8 8 7 8 8 8 9 9 8 8 8 9
1 1 1 0 0 0 0 1 1 1 1 1 1 2 2 1 1 0 1 1 1 2 2 2 2 2 3 7 8 9 9 9 9 8 8 9 9 9 10 9 9 10 10
1 1 1 0 0 0 0 0 1 1 1 1 1 1 2 2 1 1 1 1 1 1 2 2 2 2 2 2 5 8 10 10 10 10 10 10 10 10 10 10 10 10 11
1 1 1 1 0 0 0 1 0 0 1 1 1 0 0 2 3 2 1 1 1 1 1 2 2 2 2 2 3 6 8 9 10 10 10 11 11 11 12 11 11 11 11
2 1 1 1 1 1 0 1 0 1 1 1 1 0 1 1 1 3 2 1 1 2 2 2 2 2 2 2 3 6 8 9 9 10 11 11 11 12 12 12 11 11 11
2 2 1 1 1 1 1 1 1 1 1 1 1 1 2 2 2 2 4 3 3 2 2 2 2 2 2 1 2 4 8 9 9 9 10 11 11 12 13 13 12 12 12
1 2 2 2 2 1 1 1 1 1 2 2 1 1 1 1 2 2 4 4 4 3 3 2 1 2 2 1 3 7 8 9 9 10 10 11 11 12 13 14 13 13 13
1 2 2 2 2 1 1 1 1 2 2 2 3 2 2 2 2 2 3 4 5 3 2 2 2 2 2 1 3 7 7 9 10 10 10 11 11 12 13 14 14 13 13
2 2 3 2 2 2 2 2 2 2 2 3 3 3 2 2 2 2 3 3 5 4 3 3 2 2 2 2 4 8 5 9 10 11 11 11 12 13 13 14 14 14 14
1 2 2 3 2 2 2 2 2 3 2 3 3 3 3 2 2 2 2 2 3 5 6 3 2 2 2 2 5 4 3 8 11 11 12 12 12 13 14 15 14 14 14
1 2 2 2 2 2 2 2 2 2 2 3 2 3 3 2 2 2 2 3 3 5 6 4 3 3 3 4 6 4 3 9 10 12 12 13 13 14 14 15 15 14 15
1 2 2 2 2 2 2 2 2 2 3 3 3 3 4 3 3 3 2 3 4 4 7 6 4 3 4 4 4 3 4 4 5 10 12 13 13 14 14 14 14 15 15
1 1 1 1 2 2 2 2 3 3 3 3 3 3 4 3 4 3 3 4 4 4 5 8 5 4 5 4 4 4 5 5 5 9 12 13 13 13 13 13 14 14 14
1 0 1 2 2 2 2 2 3 3 3 3 3 4 4 4 4 4 4 4 4 4 4 6 7 4 4 4 4 5 5 5 6 7 10 11 12 13 14 14 14 13 13
1 1 1 2 2 2 2 2 3 3 3 4 4 4 4 4 5 5 4 5 4 4 4 5 6 5 4 4 3 4 5 4 5 5 7 9 11 13 13 14 13 12 12
1 1 1 1 1 2 2 2 2 3 3 4 4 4 4 5 6 6 5 5 5 4 4 5 6 5 5 4 4 4 6 5 5 4 4 5 5 5 6 10 11 12 13
1 1 1 2 2 2 4 5 3 3 3 4 4 4 4 4 5 8 9 8 7 6 6 6 6 7 7 6 5 4 5 6 6 3 4 5 4 5 5 4 10 14 14
1 2 2 2 3 4 5 6 6 3 3 4 4 4 4 4 4 5 7 9 8 9 10 8 8 8 7 6 5 6 5 6 7 5 4 6 3 5 5 6 13 14 14
2 2 3 3 3 4 6 6 6 3 3 4 4 5 5 5 5 5 5 5 6 6 8 7 7 7 7 5 5 6 6 6 6 4 4 6 4 5 5 4 10 12 13
2 2 2 2 3 5 6 7 6 3 4 5 5 5 5 5 8 8 5 6 6 6 8 9 9 9 10 10 7 4 4 5 7 5 2 4 4 5 5 4 6 11 12
2 2 3 3 3 4 6 6 6 3 4 4 4 4 5 6 9 9 5 5 7 7 5 5 6 8 7 7 8 5 5 5 5 5 2 2 3 3 5 4 3 4 6
Wind_Direction
60 62 59 48 38 19 8 3 12 10 12 10 15 19 15 19 28 29 39 38 34 28 25 25 21 19 20 25 31 29 22 18 13 5 357 353 351 352 357 358 356 353 350
48 56 62 42 33 24 7 355 3 14 18 15 15 13 7 5 18 31 31 33 35 28 20 14 11 10 12 13 16 14 9 6 5 0 352 343 343 337 337 337 336 337 335
59 50 59 44 17 12 5 357 16 25 24 15 9 358 354 358 3 17 20 36 25 22 17 9 4 3 3 358 0 359 357 355 349 345 345 343 339 334 335 332 328 325 324
61 61 56 40 20 14 7 4 12 19 12 0 349 339 340 345 7 9 10 13 13 11 4 3 1 357 358 354 352 349 345 340 333 332 332 333 331 326 319 321 322 321 320
70 68 62 29 25 20 17 10 10 12 5 354 335 327 323 327 322 0 348 348 355 7 357 359 356 353 352 348 344 342 338 334 326 321 321 324 324 326 317 313 312 313 312
122 96 72 20 31 39 23 20 16 9 2 336 329 329 304 285 274 268 312 348 356 358 358 351 342 341 350 347 344 341 339 335 333 331 324 314 313 315 314 310 304 303 304
145 137 100 59 59 80 19 15 20 3 356 343 345 330 302 263 244 319 332 336 345 343 350 346 350 350 343 342 342 341 338 333 329 323 322 321 317 312 311 305 304 299 298
147 150 135 159 155 104 41 13 28 1 326 3 348 330 323 322 324 294 267 256 293 331 345 340 336 333 336 338 335 333 329 327 328 328 327 323 318 314 315 309 308 307 301
149 151 164 165 182 150 204 240 205 177 287 325 24 51 284 284 317 291 261 259 298 324 311 314 315 316 325 329 320 323 324 322 322 322 320 317 318 317 314 309 307 308 309
150 138 154 173 180 171 211 257 251 239 210 275 308 295 241 231 263 303 303 294 300 294 291 299 302 296 303 299 309 318 317 315 315 315 315 314 312 313 317 310 308 306 306
159 157 178 192 205 207 209 218 224 230 206 219 237 265 276 281 250 248 283 298 303 281 273 276 272 284 291 300 299 308 310 312 313 314 314 312 311 311 313 310 306 304 304
176 178 188 207 212 213 220 224 218 231 225 223 227 222 223 236 252 247 263 286 290 283 283 272 268 279 283 284 301 306 303 306 309 310 310 309 308 310 310 312 308 305 304
194 202 202 213 216 220 228 229 228 238 236 227 226 234 238 246 256 256 262 280 289 291 273 265 272 274 282 285 290 297 293 301 302 302 304 306 306 308 307 308 306 305 302
209 196 202 211 215 218 229 223 232 241 249 239 238 233 242 253 255 251 251 271 291 287 268 266 287 273 291 286 289 293 287 293 295 297 299 300 301 303 304 305 302 304 303
203 193 199 210 218 223 228 228 233 240 243 245 245 243 245 254 257 256 252 244 254 279 283 273 276 287 292 286 293 294 275 286 290 292 296 297 296 298 301 301 298 299 302
207 194 205 210 220 228 230 230 239 245 242 252 258 248 249 257 266 264 259 258 249 254 272 278 280 294 300 296 295 295 288 292 288 290 292 295 295 294 296 297 297 297 299
218 209 212 215 226 237 238 234 239 246 249 263 267 261 257 251 253 257 260 259 256 252 265 279 285 295 297 293 298 294 292 284 289 292 294 296 296 296 295 296 297 298 298
235 235 230 226 236 246 244 239 248 249 243 255 267 266 265 264 260 256 256 256 257 257 262 278 287 290 289 290 292 290 293 291 286 294 295 296 298 300 302 302 301 300 300
262 278 244 236 241 245 247 250 249 257 255 252 251 252 260 259 263 265 263 261 264 270 267 272 283 289 289 293 297 294 288 283 289 293 293 294 298 300 300 299 299 301 301
251 239 250 248 241 248 251 257 260 262 263 262 259 256 257 253 254 259 264 265 268 272 272 271 279 287 288 290 287 288 293 289 293 297 293 296 298 300 300 300 301 302 303
284 270 251 263 261 247 250 260 258 259 266 270 269 264 263 262 265 266 268 272 271 267 269 271 276 284 284 292 285 287 285 294 290 284 291 294 296 293 294 295 298 299 300
306 296 268 259 256 255 262 260 263 266 266 266 271 273 273 267 270 275 277 277 273 267 268 267 270 273 278 281 284 282 286 295 292 293 293 291 287 287 288 284 294 297 298
264 264 266 262 263 263 269 271 267 267 267 268 271 277 281 280 273 274 278 280 279 276 270 267 269 271 279 285 290 288 286 286 284 297 299 286 283 286 292 295 298 299 303
254 255 265 264 269 270 274 279 283 274 269 271 273 270 273 280 279 281 281 281 279 278 275 270 266 273 278 283 273 274 279 285 287 291 293 285 292 287 294 292 297 298 304
261 265 272 273 274 278 276 280 284 278 271 273 273 270 268 270 277 284 282 276 280 281 282 281 282 285 287 287 286 284 280 284 286 284 274 274 292 301 293 286 290 297 304
264 274 274 269 268 276 279 281 281 271 273 278 281 275 268 271 280 281 274 270 272 276 284 290 286 287 286 286 287 275 268 269 280 283 272 275 291 314 301 286 295 304 303